GFSSE_con_sbcape_000.txt.gz
CAPE
1188 1427 2430 2283 1793 2212 2127 1841 1680 1607 1555 1510 1195 1017 1617 1562 1397 1288 1146 1297 1087 1110 1280 1279 1119 1078 846 942 1142 1404 1443 1404 1467 1270 1497 1442 1572 1583 1426 1235 1151 1073 1165
1386 1286 2622 2366 1786 1596 1636 1180 1471 1515 1579 1456 1496 1114 1277 1603 1546 1303 1124 1270 1385 1259 1232 1242 1250 1090 936 976 1126 1164 1336 1352 1361 1205 1233 1675 1426 1416 1073 1273 1068 994 877
1163 1463 1603 2531 2208 1683 1461 1298 1375 1340 1456 1294 1612 1424 1434 1521 1453 1613 1542 1541 1041 1045 1190 1152 1171 1104 939 1094 1015 1604 1542 1200 898 764 1003 644 972 1078 882 971 1027 790 583
69 1395 2085 2356 2506 2312 1835 1948 1599 1851 1781 1847 1791 1514 1540 1491 1470 1433 1250 1178 952 953 993 953 1137 1139 939 929 1053 1541 1447 1226 971 746 644 607 551 992 950 1076 863 734 650
34 963 2252 2681 2630 2363 1978 2114 2175 2074 1914 1989 1813 1344 1313 1242 1192 1213 1219 1262 1262 1195 1027 1498 1502 1321 1119 949 733 1195 1387 1222 1005 667 627 464 418 755 982 973 676 476 310
57 793 2324 2808 2589 2460 2110 1587 1952 1857 1554 1445 1430 1425 1324 1320 1304 1072 1102 1369 1318 1384 1366 1582 1617 1276 1378 1013 730 812 1263 1046 747 847 659 679 718 881 884 494 149 91 25
0 825 1913 2137 1976 1920 1808 1605 1199 1104 864 947 1037 1319 1612 1075 932 824 1202 749 1012 1152 1274 1294 1089 1231 965 1429 847 745 1101 917 501 353 294 335 952 987 462 156 1 0 0
0 809 1333 1921 1652 1396 1046 733 734 673 808 786 807 907 1222 1181 1246 1221 770 585 656 802 856 1014 1079 902 944 1068 1126 772 694 622 232 69 256 349 774 762 324 93 0 0 0
0 0 943 698 1069 1066 928 892 784 494 458 690 336 286 615 1320 659 435 981 535 539 645 598 798 748 794 964 853 1116 776 506 332 152 154 133 225 702 725 266 10 0 0 0
0 0 0 0 0 0 40 293 147 551 196 0 57 0 69 0 58 0 439 262 731 725 534 839 597 552 876 921 1090 902 485 104 67 0 9 113 386 295 333 0 0 0 4
0 0 0 0 0 0 0 0 0 0 0 0 0 0 0 0 0 0 0 191 244 698 332 799 547 601 867 1044 999 863 573 0 19 8 211 198 348 332 189 12 0 0 1
0 0 0 0 0 0 0 0 0 0 0 0 0 0 0 0 0 0 0 0 0 17 11 41 321 661 723 615 694 911 341 270 136 155 189 311 380 325 238 141 0 0 0
0 0 0 0 0 0 0 0 0 0 0 0 0 0 0 0 0 0 0 0 0 0 0 0 0 0 23 353 628 710 564 430 365 365 264 598 699 279 167 297 33 0 0
0 0 0 0 0 0 0 0 0 0 0 0 0 0 0 0 0 0 0 0 0 0 0 0 0 0 0 248 427 536 484 359 253 220 422 611 554 206 101 74 179 0 0
0 0 0 0 0 0 0 0 0 0 0 0 0 0 0 0 0 0 0 0 0 0 0 0 0 0 0 0 46 500 559 541 425 326 320 531 513 350 136 137 331 16 0
0 0 0 0 0 0 0 0 0 0 0 0 0 0 0 0 0 0 0 0 0 0 0 0 0 0 0 0 0 93 536 480 375 446 250 246 494 405 193 134 343 83 8
0 0 0 0 0 0 0 0 0 0 0 0 0 0 0 0 0 0 0 0 0 0 0 0 0 0 0 0 0 0 56 363 301 299 372 271 154 372 340 351 535 211 52
0 0 0 0 0 0 0 0 0 0 0 0 0 0 0 0 0 0 0 0 0 0 0 0 0 0 0 0 0 0 0 181 283 248 252 393 163 48 221 331 489 442 142
0 0 0 0 0 0 0 0 0 0 0 0 0 0 0 0 0 0 0 0 0 0 0 0 0 0 0 0 0 0 0 0 256 281 194 167 294 122 12 198 285 365 524
0 0 0 0 0 0 0 0 0 0 0 0 0 0 0 0 0 0 0 0 0 0 0 0 0 0 0 0 0 0 0 0 0 68 224 199 192 214 40 1 50 70 401
0 0 0 0 0 0 0 0 0 0 0 0 0 0 0 0 0 0 0 0 0 0 0 0 0 0 0 0 0 0 0 0 0 0 38 220 230 244 158 23 0 0 49
0 0 0 0 0 0 0 0 0 0 0 0 0 0 0 0 0 0 0 0 0 0 0 0 0 0 0 0 0 0 1 0 0 0 1 66 178 283 148 98 3 0 0
0 0 0 0 0 0 0 0 0 0 0 0 0 0 0 0 0 0 0 0 0 0 0 0 0 0 0 0 1 21 17 3 7 0 0 0 55 134 150 63 17 0 0
0 0 0 0 0 0 0 0 0 0 0 0 0 0 0 0 0 0 0 0 0 0 0 0 0 0 0 0 0 11 18 45 50 14 0 0 0 100 103 121 74 22 4
0 0 0 0 0 0 0 0 0 0 0 0 0 0 0 0 0 0 0 0 0 0 0 0 0 0 0 0 5 34 0 0 16 89 30 1 0 6 113 118 95 73 53
0 0 0 0 0 0 0 0 0 0 0 0 0 0 0 0 0 0 0 0 0 0 0 0 0 0 0 11 5 23 8 18 17 80 83 30 47 0 12 141 115 88 54

GFSSE_con_sbcape_003.txt.gz
CAPE
868 1948 2738 2176 1828 1919 1960 1657 1692 1539 1747 1491 1264 1425 1728 1470 1381 1200 1222 1321 1348 1167 1128 1136 1083 1109 1124 1160 1161 1248 1473 1580 1396 1428 1471 1493 1420 1359 1279 1138 1170 1069 1130
1025 1937 2604 2408 1871 1679 1549 1690 1388 1466 1554 1792 1961 1679 1549 1538 1528 1304 1334 1161 1051 1083 994 936 872 870 1005 1084 1080 1523 1580 1396 1200 1140 1307 1110 1246 1702 1166 1151 1301 1050 1127
1477 1621 2242 2764 2372 1611 1309 1287 1255 1377 1615 1840 1895 1580 1426 1487 1421 1286 1236 1167 994 1019 970 1007 952 867 796 1000 1280 1654 1444 1182 909 854 1092 637 779 1270 1138 1107 1180 944 661
1411 2133 2065 2328 2652 2262 1664 1992 1874 1765 1639 1866 1698 1383 1301 1249 1159 1136 1264 1277 1260 1164 1048 979 902 1061 873 1041 1166 1506 1437 1074 859 1018 672 829 568 1108 1050 1212 975 721 792
1402 1883 2178 2789 2593 2356 2125 2116 2226 1782 1633 1614 1675 1651 1165 1205 1010 1120 1062 1287 1425 1542 1430 1225 1532 964 984 974 943 1297 1406 1117 972 707 565 418 521 1042 1295 1104 811 699 566
1158 1960 2297 2618 2257 2039 2279 1720 1122 1108 1228 1419 1740 1400 1184 770 749 979 476 911 1234 1448 1556 1543 1649 1276 1271 998 922 1003 1192 935 977 711 502 746 525 984 908 907 602 340 177
1188 1727 1833 2158 2056 1963 1469 1087 759 791 975 1032 1115 1008 957 985 755 733 413 595 657 647 706 1047 1342 1188 1116 1235 900 1016 1239 773 237 100 207 444 624 1202 935 612 295 89 0
887 1492 1733 1921 1607 1266 708 584 674 629 713 733 295 360 1270 1235 754 670 941 753 551 603 565 591 617 968 1180 1075 1324 1017 1274 494 82 41 209 489 1176 1230 842 452 99 0 0
44 958 999 456 664 1031 859 631 428 324 99 27 8 4 0 9 0 106 272 731 999 938 657 512 239 408 860 1149 1154 1049 752 318 20 20 139 138 899 1141 828 320 30 0 0
0 0 184 434 82 0 0 129 11 8 0 0 0 0 0 0 0 0 0 0 179 368 336 807 420 614 831 920 1127 1260 811 387 92 30 0 111 440 545 793 327 64 0 0
0 0 0 0 0 0 0 0 0 0 0 0 0 0 0 0 0 0 0 0 0 0 0 34 152 625 731 753 891 1277 874 146 0 0 0 112 500 680 794 371 93 5 0
0 0 0 0 0 0 0 0 0 0 0 0 0 0 0 0 0 0 0 0 0 0 0 0 0 0 116 36 300 668 627 136 13 74 100 267 339 803 718 483 130 22 0
0 0 0 0 0 0 0 0 0 0 0 0 0 0 0 0 0 0 0 0 0 0 0 0 0 0 0 0 77 152 485 461 245 195 218 375 565 550 812 685 299 49 0
0 0 0 0 0 0 0 0 0 0 0 0 0 0 0 0 0 0 0 0 0 0 0 0 0 0 0 0 0 0 141 280 334 438 566 805 810 717 841 613 657 261 11
0 0 0 0 0 0 0 0 0 0 0 0 0 0 0 0 0 0 0 0 0 0 0 0 0 0 0 0 0 0 0 239 534 543 581 769 928 929 784 516 611 534 85
0 0 0 0 0 0 0 0 0 0 0 0 0 0 0 0 0 0 0 0 0 0 0 0 0 0 0 0 0 0 0 0 237 598 534 467 718 886 700 543 817 624 212
0 0 0 0 0 0 0 0 0 0 0 0 0 0 0 0 0 0 0 0 0 0 0 0 0 0 0 0 0 0 0 0 0 43 321 436 392 554 660 671 737 738 437
0 0 0 0 0 0 0 0 0 0 0 0 0 0 0 0 0 0 0 0 0 0 0 0 0 0 0 0 0 0 0 0 0 0 21 292 438 456 441 513 598 732 654
0 0 0 0 0 0 0 0 0 0 0 0 0 0 0 0 0 0 0 0 0 0 0 0 0 0 0 0 0 0 0 0 0 0 0 23 232 287 251 274 552 604 743
0 0 0 0 0 0 0 0 0 0 0 0 0 0 0 0 0 0 0 0 0 0 0 0 0 0 0 0 0 0 0 0 0 0 0 0 0 113 314 156 177 313 632
0 0 0 0 0 0 0 0 0 0 0 0 0 0 0 0 0 0 0 0 0 0 0 0 0 0 0 0 0 0 0 0 0 0 0 0 0 0 147 321 121 164 230
0 0 0 0 0 0 0 0 0 0 0 0 0 0 0 0 0 0 0 0 0 0 0 0 0 0 0 0 0 0 0 0 0 0 0 0 0 0 0 84 234 92 72
0 0 0 0 0 0 0 0 0 0 0 0 0 0 0 0 0 0 0 0 0 0 0 0 0 0 0 0 0 0 1 0 0 0 0 0 0 0 0 0 110 166 68
0 0 0 0 0 0 0 0 0 0 0 0 0 0 0 0 0 0 0 0 0 0 0 0 0 0 0 0 0 0 4 48 17 0 0 0 0 1 0 0 0 76 69
0 0 0 0 0 0 0 0 0 0 0 0 0 0 0 0 0 0 0 0 0 0 0 0 0 0 0 0 0 0 17 10 16 32 18 0 0 0 4 0 0 0 62
0 0 0 0 0 0 0 0 0 0 0 0 0 0 0 0 0 0 0 0 0 0 0 0 0 0 0 0 0 0 3 8 7 29 30 1 0 0 11 0 0 0 0

GFSSE_con_sbcape_006.txt.gz
CAPE
636 1406 2368 1953 1775 1693 1723 1551 1279 1793 1317 1172 1429 1467 1543 1465 1381 1342 1356 1253 1164 1166 1025 921 988 1168 1105 1231 1001 1425 1463 1482 1159 1470 1693 1572 1613 1417 1548 1475 1371 1075 1130
853 1679 2326 1912 1702 1631 1629 1377 1287 1657 1542 1600 1502 1480 1467 1415 1336 1338 1248 1114 1153 1088 1062 1012 867 800 1127 1103 1338 1593 1349 1134 1145 1296 1324 1510 1447 1681 1358 1336 1261 1082 951
1082 1869 2224 2256 1882 1427 1424 1340 1474 1587 1619 1579 1432 1377 1298 1242 1246 1273 1273 1239 1169 1096 1002 939 986 931 990 1141 1262 1528 1390 1054 980 997 1140 760 1186 1563 1460 1249 1331 661 669
1533 1845 1847 1863 2064 1758 1439 1403 1399 1467 1488 1440 1301 1080 1011 944 904 1009 1211 1308 1416 1449 1266 1169 1067 1096 968 1137 1188 1549 1298 1174 1031 1174 723 718 959 1410 1327 1280 901 770 712
1631 1717 1758 2077 2153 2117 1765 1580 1324 1197 1202 1226 1265 1010 627 564 402 287 585 981 1124 1318 1524 1490 1351 1041 973 1090 1042 1101 1184 1128 1089 822 585 517 686 1081 1243 1076 947 610 608
1403 1677 2250 2109 1904 1814 1123 593 690 748 686 605 695 705 544 435 413 138 99 198 194 497 845 1158 1355 1347 1144 992 1107 1156 1019 1058 909 275 399 469 632 1274 1332 1035 1020 728 446
1187 1403 1613 1630 1659 1142 772 319 228 387 216 137 296 651 665 180 513 424 193 245 281 191 143 228 742 1089 1313 1137 1079 1156 1169 936 256 128 273 473 636 1482 1288 1098 904 431 306
1337 1572 1633 1764 1111 706 213 160 258 19 0 0 0 0 5 0 0 0 49 368 206 395 450 31 182 469 889 1274 1230 1206 1312 582 148 145 305 488 746 1293 1279 1044 691 363 123
1069 1015 493 510 641 615 304 290 8 0 0 0 0 0 0 0 0 0 0 0 0 0 38 194 136 444 217 875 1169 1276 1285 515 26 54 200 252 971 1080 1242 991 467 151 15
46 137 22 0 0 0 0 0 0 0 0 0 0 0 0 0 0 0 0 0 0 0 0 0 0 487 122 138 828 1358 1151 716 257 22 2 5 676 906 945 1039 439 76 7
0 0 0 0 0 0 0 0 0 0 0 0 0 0 0 0 0 0 0 0 0 0 0 0 0 0 0 0 212 758 1126 558 80 0 0 0 99 744 642 747 488 167 33
0 0 0 0 0 0 0 0 0 0 0 0 0 0 0 0 0 0 0 0 0 0 0 0 0 0 0 0 0 0 224 415 92 0 22 163 270 459 593 669 596 273 77
0 0 0 0 0 0 0 0 0 0 0 0 0 0 0 0 0 0 0 0 0 0 0 0 0 0 0 0 0 0 0 26 230 142 196 359 457 733 887 696 640 296 110
0 0 0 0 0 0 0 0 0 0 0 0 0 0 0 0 0 0 0 0 0 0 0 0 0 0 0 0 0 0 0 0 0 241 389 538 891 952 1006 791 791 472 148
0 0 0 0 0 0 0 0 0 0 0 0 0 0 0 0 0 0 0 0 0 0 0 0 0 0 0 0 0 0 0 0 0 0 28 574 947 904 808 998 1037 729 454
0 0 0 0 0 0 0 0 0 0 0 0 0 0 0 0 0 0 0 0 0 0 0 0 0 0 0 0 0 0 0 0 0 0 0 0 17 493 593 747 1070 925 729
0 0 0 0 0 0 0 0 0 0 0 0 0 0 0 0 0 0 0 0 0 0 0 0 0 0 0 0 0 0 0 0 0 0 0 0 0 46 348 427 606 816 766
0 0 0 0 0 0 0 0 0 0 0 0 0 0 0 0 0 0 0 0 0 0 0 0 0 0 0 0 0 0 0 0 0 0 0 0 0 0 0 117 389 711 721
0 0 0 0 0 0 0 0 0 0 0 0 0 0 0 0 0 0 0 0 0 0 0 0 0 0 0 0 0 0 0 0 0 0 0 0 0 0 0 2 36 515 585
0 0 0 0 0 0 0 0 0 0 0 0 0 0 0 0 0 0 0 0 0 0 0 0 0 0 0 0 0 0 0 0 0 0 0 0 0 0 0 0 0 31 469
0 0 0 0 0 0 0 0 0 0 0 0 0 0 0 0 0 0 0 0 0 0 0 0 0 0 0 0 0 0 0 0 0 0 0 0 0 0 0 0 0 0 57
0 0 0 0 0 0 0 0 0 0 0 0 0 0 0 0 0 0 0 0 0 0 0 0 0 0 0 0 0 0 0 0 0 0 0 0 0 0 0 0 0 0 0
0 0 0 0 0 0 0 0 0 0 0 0 0 0 0 0 0 0 0 0 0 0 0 0 0 0 0 0 0 0 0 0 0 0 0 0 0 0 0 0 4 0 0
0 0 0 0 0 0 0 0 0 0 0 0 0 0 0 0 0 0 0 0 0 0 0 0 0 0 0 0 0 0 0 0 0 0 0 0 0 0 0 0 0 2 0
0 0 0 0 0 0 0 0 0 0 0 0 0 0 0 0 0 0 0 0 0 0 0 0 0 0 0 0 0 0 0 0 0 1 0 0 0 0 0 0 0 4 0
0 0 0 0 0 0 0 0 0 0 0 0 0 0 0 0 0 0 0 0 0 0 0 0 0 0 0 0 0 0 0 0 0 0 2 2 4 0 0 0 0 12 5

GFSSE_con_sbcape_009.txt.gz
CAPE
621 986 1938 1677 1626 1698 1553 1360 1667 1256 1182 1504 1429 1540 1506 1481 1521 1409 1320 1298 1320 1184 1099 1013 1059 1252 1321 1174 1393 1461 1520 1362 1030 1136 1654 1749 1848 1683 1567 1513 1367 1087 1115
893 1596 2029 1799 1702 1723 1375 1358 1603 1465 1634 1448 1468 1016 1358 1302 1354 1419 1303 1315 1261 1189 1194 1120 1019 1024 1361 1169 1592 1538 1314 1169 1151 1620 1504 1624 1708 1700 1520 1456 1361 1098 1074
1442 1888 1901 1851 1526 1592 1457 1507 1529 1572 1448 1343 1168 1095 1094 1126 1095 1279 1377 1444 1401 1311 1168 1058 1176 1047 1217 1222 1493 1531 1237 1072 1220 1249 1338 1074 1359 1532 1340 1292 1219 928 909
1465 1705 1705 1607 1797 1584 1438 1347 1291 1126 1029 901 853 621 598 300 456 792 950 1028 1247 1510 1499 1370 1220 1171 1155 1268 1298 1504 1421 1229 1157 1241 741 968 1256 1620 1514 1403 885 878 736
1400 1481 1377 1646 1859 1718 1466 1311 837 676 682 628 593 445 332 127 84 147 272 283 642 1010 1211 1509 1455 1245 1119 1223 1201 1153 1357 1247 1266 739 611 670 648 1474 1479 1166 990 827 913
1294 1494 1868 1687 1595 1373 668 738 651 280 110 340 610 466 266 448 221 129 73 44 160 239 278 882 1293 1476 1331 1182 1213 1196 1129 1102 920 116 353 582 722 1170 1393 1237 975 892 695
1023 1308 1340 1468 912 337 251 104 18 0 0 109 578 106 41 303 129 123 186 134 85 69 22 199 447 902 1287 1418 1317 1263 1304 1109 310 177 302 407 749 1355 1109 1266 1195 911 590
1048 1319 1452 1363 770 265 0 0 0 0 0 0 0 0 0 0 0 0 0 0 0 0 9 113 231 112 428 1113 1392 1486 1369 712 155 107 198 302 617 973 1185 963 1046 745 530
1099 909 705 351 220 214 142 0 0 0 0 0 0 0 0 0 0 0 0 0 0 0 0 8 87 13 0 289 903 1321 1320 744 44 37 109 65 422 880 971 799 777 701 354
329 14 0 0 0 0 0 0 0 0 0 0 0 0 0 0 0 0 0 0 0 0 0 0 0 0 0 0 0 337 1130 1024 290 53 11 3 242 609 688 529 643 560 272
0 0 0 0 0 0 0 0 0 0 0 0 0 0 0 0 0 0 0 0 0 0 0 0 0 0 0 0 0 0 0 201 322 58 4 15 277 388 372 643 530 533 278
0 0 0 0 0 0 0 0 0 0 0 0 0 0 0 0 0 0 0 0 0 0 0 0 0 0 0 0 0 0 0 0 5 77 8 263 541 683 599 655 685 612 463
0 0 0 0 0 0 0 0 0 0 0 0 0 0 0 0 0 0 0 0 0 0 0 0 0 0 0 0 0 0 0 0 0 0 20 280 596 747 814 931 875 715 646
0 0 0 0 0 0 0 0 0 0 0 0 0 0 0 0 0 0 0 0 0 0 0 0 0 0 0 0 0 0 0 0 0 0 0 0 0 163 673 679 760 686 774
0 0 0 0 0 0 0 0 0 0 0 0 0 0 0 0 0 0 0 0 0 0 0 0 0 0 0 0 0 0 0 0 0 0 0 0 0 1 17 290 461 643 795
0 0 0 0 0 0 0 0 0 0 0 0 0 0 0 0 0 0 0 0 0 0 0 0 0 0 0 0 0 0 0 0 0 0 0 0 0 0 0 3 24 279 425
0 0 0 0 0 0 0 0 0 0 0 0 0 0 0 0 0 0 0 0 0 0 0 0 0 0 0 0 0 0 0 0 0 0 0 0 0 0 0 0 0 4 92
0 0 0 0 0 0 0 0 0 0 0 0 0 0 0 0 0 0 0 0 0 0 0 0 0 0 0 0 0 0 0 0 0 0 0 0 0 0 0 0 0 0 0
0 0 0 0 0 0 0 0 0 0 0 0 0 0 0 0 0 0 0 0 0 0 0 0 0 0 0 0 0 0 0 0 0 0 0 0 0 0 0 0 0 0 0
0 0 0 0 0 0 0 0 0 0 0 0 0 0 0 0 0 0 0 0 0 0 0 0 0 0 0 0 0 0 0 0 0 0 0 0 0 0 0 0 0 0 0
0 0 0 0 0 0 0 0 0 0 0 0 0 0 0 0 0 0 0 0 0 0 0 0 0 0 0 0 0 0 0 0 0 0 0 0 0 0 0 0 0 0 0
0 0 0 0 0 0 0 0 0 0 0 0 0 0 0 0 0 0 0 0 0 0 0 0 0 0 0 0 0 0 0 0 0 0 0 0 0 0 0 0 0 0 0
0 0 0 0 0 0 0 0 0 0 0 0 0 0 0 0 0 0 0 0 0 0 0 0 0 0 0 0 0 0 0 0 0 0 0 0 0 0 0 0 0 0 0
0 0 0 0 0 0 0 0 0 0 0 0 0 0 0 0 0 0 0 0 0 0 0 0 0 0 0 0 0 0 0 0 0 0 0 0 0 0 0 0 0 0 0
0 0 0 0 0 0 0 0 0 0 0 0 0 0 0 0 0 0 0 0 0 0 0 0 0 0 0 0 0 0 0 0 0 0 0 0 0 0 0 0 0 0 0
0 0 0 0 0 0 0 0 0 0 0 0 0 0 0 0 0 0 0 0 0 0 0 0 0 0 0 0 0 0 0 0 0 0 0 0 0 0 0 0 0 0 0

GFSSE_con_sbcape_015.txt.gz
CAPE
815 1300 1629 1425 1575 1538 1477 1103 878 1263 1350 1295 1200 1272 1595 1578 1368 1461 1461 1441 1384 1408 1332 1240 1352 1480 1395 1594 1528 1512 1411 1179 1283 1650 1796 1788 1570 1645 1718 1605 1536 1300 1425
531 1326 1753 1773 1628 1202 1721 1245 1433 1325 990 1164 1303 1114 1042 1343 1609 1712 1750 1681 1522 1379 1290 1368 1298 1556 1346 1517 1581 1519 1349 1265 1417 1609 1475 1372 1276 1662 1562 1597 1311 1281 1255
759 1509 1640 1658 1721 1251 808 1229 1320 1355 1002 748 609 375 659 802 898 987 1092 1401 1693 1632 1483 1412 1379 1373 1473 1359 1626 1437 1297 1396 1449 1367 1325 1218 1276 1307 1279 1332 1337 1343 1176
1127 1428 1325 1564 1733 1540 1448 1128 818 689 501 277 95 36 63 165 180 311 507 672 759 1391 1638 1647 1468 1357 1405 1386 1353 1558 1454 1437 1545 1098 1010 1284 1352 1241 1296 1236 1249 1259 998
1169 1293 1370 1610 1821 1448 1015 537 381 292 201 158 114 70 46 32 29 70 103 170 253 636 930 1336 1669 1584 1404 1334 1371 1328 1493 1648 1080 892 1080 1338 1439 1071 896 893 1050 1046 889
933 1112 1469 1671 1664 1395 616 544 197 267 234 202 23 343 107 23 101 52 104 146 156 222 493 555 898 1434 1650 1608 1406 1363 1499 1150 703 1003 1159 1129 1216 1121 1041 810 803 982 971
840 1062 1152 1487 1398 819 448 7 42 258 324 59 0 3 2 0 0 0 0 1 39 376 383 69 173 807 1144 1312 1504 1491 1526 897 883 843 967 1055 1110 1143 896 689 500 704 781
801 969 1045 1447 988 494 0 0 0 3 0 0 0 0 0 0 0 0 0 0 0 0 4 0 0 61 188 523 1079 1581 1134 556 615 696 600 502 669 872 1046 741 556 579 519
795 927 1149 480 378 327 0 0 0 0 0 0 0 0 0 0 0 0 0 0 0 0 0 0 0 0 0 2 94 710 998 620 760 584 500 649 638 931 925 944 612 595 536
886 1005 573 30 0 0 0 0 0 0 0 0 0 0 0 0 0 0 0 0 0 0 0 0 0 0 0 0 0 0 0 0 294 316 234 353 683 834 868 671 887 689 637
514 539 28 0 0 0 0 0 0 0 0 0 0 0 0 0 0 0 0 0 0 0 0 0 0 0 0 0 0 0 0 0 0 0 0 5 431 764 828 926 749 914 719
46 30 0 0 0 0 0 0 0 0 0 0 0 0 0 0 0 0 0 0 0 0 0 0 0 0 0 0 0 0 0 0 0 0 0 0 5 256 358 591 828 893 835
15 0 0 0 0 0 0 0 0 0 0 0 0 0 0 0 0 0 0 0 0 0 0 0 0 0 0 0 0 0 0 0 0 0 0 0 0 0 0 0 3 68 240
28 0 0 0 0 0 0 0 0 0 0 0 0 0 0 0 0 0 0 0 0 0 0 0 0 0 0 0 0 0 0 0 0 0 0 0 0 0 0 0 0 0 0
1 0 0 0 0 0 0 0 0 0 0 0 0 0 0 0 0 0 0 0 0 0 0 0 0 0 0 0 0 0 0 0 0 0 0 0 0 0 0 0 0 0 0
0 0 0 0 0 0 0 0 0 0 0 0 0 0 0 0 0 0 0 0 0 0 0 0 0 0 0 0 0 0 0 0 0 0 0 0 0 0 0 0 0 0 0
0 0 0 0 0 0 0 0 0 0 0 0 0 0 0 0 0 0 0 0 0 0 0 0 0 0 0 0 0 0 0 0 0 0 0 0 0 0 0 0 0 0 0
0 0 0 0 0 0 0 0 0 0 0 0 0 0 0 0 0 0 0 0 0 0 0 0 0 0 0 0 0 0 0 0 0 0 0 0 0 0 0 0 0 0 0
0 0 0 0 0 0 0 0 0 0 0 0 0 0 0 0 0 0 0 0 0 0 0 0 0 0 0 0 0 0 0 0 0 0 0 0 0 0 0 0 0 0 0
0 0 0 0 0 0 0 0 0 0 0 0 0 0 0 0 0 0 0 0 0 0 0 0 0 0 0 0 0 0 0 0 0 0 0 0 0 0 0 0 0 0 0
0 0 0 0 0 0 0 0 0 0 0 0 0 0 0 0 0 0 0 0 0 0 0 0 0 0 0 0 0 0 0 0 0 0 0 0 0 0 0 0 0 0 0
0 0 0 0 0 0 0 0 0 0 0 0 0 0 0 0 0 0 0 0 0 0 0 0 0 0 0 0 0 0 0 0 0 0 0 0 0 0 0 0 0 0 0
0 0 0 0 0 0 0 0 0 0 0 0 0 0 0 0 0 0 0 0 0 0 0 0 0 0 0 0 0 0 0 0 0 0 0 0 0 0 0 0 0 0 0
0 0 0 0 0 0 0 0 0 0 0 0 0 0 0 0 0 0 0 0 0 0 0 0 0 0 0 0 0 0 0 0 0 0 0 0 0 0 0 0 0 0 0
0 0 0 0 0 0 0 0 0 0 0 0 0 0 0 0 0 0 0 0 0 0 0 0 0 0 0 0 0 0 0 0 0 0 0 0 0 0 0 0 0 0 0
0 0 0 0 0 0 0 0 0 0 0 0 0 0 0 0 0 0 0 0 0 0 0 0 0 0 0 0 0 0 0 0 0 0 0 0 0 0 0 0 0 0 0

GFSSE_con_sbcape_021.txt.gz
CAPE
135 913 1604 1296 1653 1446 974 909 1149 962 966 1258 1396 1709 1777 1907 2042 2020 1800 1593 1548 1594 1655 1655 1601 1523 1690 1669 1648 1524 1447 1592 1720 1783 1807 1856 1840 1656 1572 1414 1434 1160 1536
21 301 1489 1430 1232 1614 824 746 1041 944 1277 971 877 964 962 883 1069 1170 1282 1815 1640 1651 1638 1659 1716 1561 1717 1801 1690 1543 1509 1539 1547 1424 1481 2003 1888 1497 1412 1418 1642 1513 1538
104 428 1010 1836 1198 1563 1335 1707 923 893 299 329 427 410 387 530 630 671 725 1198 1452 1768 1651 1647 1728 1677 1557 1758 1689 1597 1642 1504 1246 1215 1514 1303 1087 1238 1083 1066 1180 1291 1179
156 507 777 1838 1403 1059 1519 1141 776 536 52 13 22 30 74 113 206 258 379 639 1092 1295 1420 1801 1637 1611 1598 1618 1867 1782 1791 1250 1085 1282 1464 1170 1102 1150 812 797 858 1059 1074
188 350 1366 2297 1921 1770 1115 815 514 252 28 31 0 0 7 45 124 240 267 413 700 590 808 1513 1672 1799 1803 1614 1597 2066 1624 1225 1269 1352 1610 1599 1479 1000 953 844 731 915 841
520 404 1236 1912 1958 1141 760 533 345 251 176 138 69 0 7 3 2 1 40 434 401 143 543 810 955 1196 1642 1772 1670 1947 1383 1255 1464 1501 1607 1515 1427 1247 997 805 825 698 552
543 453 561 1970 1528 916 680 426 254 254 101 153 25 0 0 0 0 0 0 0 18 0 3 290 520 772 1036 1742 1951 1552 1182 1189 1203 1311 1275 1168 1165 1283 1323 922 671 602 564
370 195 585 1941 1477 982 515 354 453 267 39 0 0 0 0 0 0 0 0 0 0 0 0 0 48 193 466 1310 1645 1202 1159 1370 1212 1125 856 1015 890 935 1115 1150 781 622 683
23 1 50 580 1251 774 284 368 496 143 12 0 0 0 0 0 0 0 0 0 0 0 0 0 0 0 18 256 533 719 683 935 860 818 437 738 1077 740 926 924 949 860 723
0 0 0 434 871 507 74 157 159 10 0 0 0 0 0 0 0 0 0 0 0 0 0 0 0 0 0 0 0 0 0 280 487 481 210 327 784 1029 991 1128 934 991 839
0 0 0 65 382 224 13 4 0 0 0 0 0 0 0 0 0 0 0 0 0 0 0 0 0 0 0 0 0 0 0 68 111 98 12 15 357 477 493 559 687 804 967
0 0 0 0 35 123 0 0 0 0 0 0 0 0 0 0 0 0 0 0 0 0 0 0 0 0 0 0 0 0 0 0 0 0 0 0 0 23 59 95 199 287 416
0 0 0 0 0 0 0 0 0 0 0 0 0 0 0 0 0 0 0 0 0 0 0 0 0 0 0 0 0 0 0 0 0 0 0 0 0 0 0 0 0 0 2
0 0 0 0 0 0 0 0 0 0 0 0 0 0 0 0 0 0 0 0 0 0 0 0 0 0 0 0 0 0 0 0 0 0 0 0 0 0 0 0 0 0 0
0 0 2 1 0 0 0 0 0 0 0 0 0 0 0 0 0 0 0 0 0 0 0 0 0 0 0 0 0 0 0 0 0 0 0 0 0 0 0 0 0 0 0
0 0 0 47 0 0 0 0 0 0 0 0 0 0 0 0 0 0 0 0 0 0 0 0 0 0 0 0 0 0 0 0 0 0 0 0 0 0 0 0 0 0 0
0 0 0 3 6 0 0 0 0 0 0 0 0 0 0 0 0 0 0 0 0 0 0 0 0 0 0 0 0 0 0 0 0 0 0 0 0 0 0 0 0 0 0
0 0 0 4 24 0 0 0 0 0 0 0 0 0 0 0 0 0 0 0 0 0 0 0 0 0 0 0 0 0 0 0 0 0 0 0 0 0 0 0 0 0 0
0 0 0 0 0 0 0 0 0 0 0 0 0 0 0 0 0 0 0 0 0 0 0 0 0 0 0 0 0 0 0 0 0 0 0 0 0 0 0 0 0 0 0
0 0 0 0 0 0 0 0 0 0 0 0 0 0 0 0 0 0 0 0 0 0 0 0 0 0 0 0 0 0 0 0 0 0 0 0 0 0 0 0 0 0 0
0 0 0 0 0 0 0 0 0 0 0 0 0 0 0 0 0 0 0 0 0 0 0 0 0 0 0 0 0 0 0 0 0 0 0 0 0 0 0 0 0 0 0
0 0 0 0 0 0 0 0 0 0 0 0 0 0 0 0 0 0 0 0 0 0 0 0 0 0 0 0 0 0 0 0 0 0 0 0 0 0 0 0 0 0 0
0 0 0 0 0 0 5 0 0 0 0 0 0 0 0 0 0 0 0 0 0 0 0 0 0 0 0 0 0 0 0 0 0 0 0 0 0 0 0 0 0 0 0
0 0 0 0 0 0 0 3 0 0 0 0 0 0 0 0 0 0 0 0 0 0 0 0 0 0 0 0 0 0 0 0 0 0 0 0 0 0 0 0 0 0 0
0 0 0 0 0 0 0 0 0 0 0 0 0 0 0 0 0 0 0 0 0 0 0 0 0 0 0 0 0 0 0 0 0 0 0 0 0 0 0 0 0 0 0
0 0 0 0 0 0 0 0 1 0 0 0 0 0 0 0 0 0 0 0 0 0 0 0 0 0 0 0 0 0 0 0 0 0 0 0 0 0 0 0 0 0 0

GFSSE_con_sbcape_024.txt.gz
CAPE
1101 1193 1654 1374 1372 1529 813 1195 916 1062 1216 1307 1313 1338 1241 1562 1631 1814 1851 1551 1590 1688 1651 1412 1563 1717 1801 1888 1681 1656 1540 1738 1765 1849 1977 2004 2058 1692 1326 1713 1961 1417 1184
492 785 1711 1648 1224 1149 655 1066 877 1146 869 783 797 707 836 873 925 1047 1452 1668 1615 1582 1661 1717 1591 1597 1840 1739 1654 1557 1464 1483 1470 1544 1740 1807 1802 1884 1325 1796 1710 1466 1152
132 570 1199 1717 1367 1312 1347 1005 860 444 387 414 380 362 463 486 486 557 839 1278 1402 1683 1567 1598 1696 1531 1652 1885 1660 1687 1459 1254 1147 1211 1515 1021 1124 1458 1126 1577 1391 1232 1188
228 167 1320 1611 2041 1344 1512 1073 629 217 74 42 51 56 63 169 219 273 520 760 872 996 1436 1644 1614 1558 1529 1600 1942 1773 1251 1157 1301 1332 1190 1143 867 1247 986 986 938 1174 1065
139 598 1656 2207 1966 1625 1176 812 508 109 50 0 0 0 17 71 116 133 274 282 233 729 1011 1280 1483 1801 1649 1563 1848 1619 1449 1505 1668 1385 1214 1114 805 1120 1099 985 815 984 895
177 1149 2427 2379 2258 1419 1018 708 324 143 96 40 0 1 0 0 0 0 45 8 2 162 410 571 852 1069 1643 1635 1897 1430 1402 1544 1443 1105 1166 1231 1112 1368 1022 881 1139 671 547
319 817 1496 2369 1749 1169 807 500 364 205 246 109 0 0 0 0 0 0 0 3 0 0 56 187 328 600 1541 1913 1562 1301 1334 1673 845 888 922 703 856 1384 1344 902 726 670 591
319 586 975 2168 1551 1161 709 365 352 167 36 0 0 0 0 0 0 0 0 0 0 0 0 1 34 263 593 1554 1423 1132 1106 1497 762 532 577 773 975 910 1052 1171 868 675 693
213 187 667 1359 1245 1398 866 587 509 242 28 0 0 0 0 0 0 0 0 0 0 0 0 0 0 0 119 438 635 572 660 919 412 224 250 428 1209 1036 1133 1004 1027 949 744
6 0 245 737 833 466 261 962 552 191 4 0 0 0 0 0 0 0 0 0 0 0 0 0 0 0 0 0 0 0 7 241 237 4 0 115 681 732 1121 1098 1062 1136 944
0 0 0 406 439 331 54 312 314 65 0 0 0 0 0 0 0 0 0 0 0 0 0 0 0 0 0 0 0 0 0 0 10 0 0 5 70 401 497 707 678 729 803
0 0 0 142 288 150 50 1 0 0 0 0 0 0 0 0 0 0 0 0 0 0 0 0 0 0 0 0 0 0 0 0 0 0 0 0 1 16 18 49 104 153 271
0 0 0 0 121 76 2 0 0 0 0 0 0 0 0 0 0 0 0 0 0 0 0 0 0 0 0 0 0 0 0 0 0 0 0 0 0 0 1 0 0 0 0
0 0 0 0 0 0 0 0 0 0 0 0 0 0 0 0 0 0 0 0 0 0 0 0 0 0 0 0 0 0 0 0 0 0 0 0 0 0 0 0 0 0 0
0 0 0 0 0 0 0 0 0 0 0 0 0 0 0 0 0 0 0 0 0 0 0 0 0 0 0 0 0 0 0 0 0 0 0 0 0 0 0 0 0 0 0
0 0 0 0 0 0 0 0 0 0 0 0 0 0 0 0 0 0 0 0 0 0 0 0 0 0 0 0 0 0 0 0 0 0 0 0 0 0 0 0 0 0 0
0 0 0 0 0 0 0 0 0 0 0 0 0 0 0 0 0 0 0 0 0 0 0 0 0 0 0 0 0 0 0 0 0 0 0 0 0 0 0 0 0 0 0
0 0 0 0 0 2 0 0 0 0 0 0 0 0 0 0 0 0 0 0 0 0 0 0 0 0 0 0 0 0 0 0 0 0 0 0 0 0 0 0 0 0 0
0 0 0 0 0 3 0 0 0 0 0 0 0 0 0 0 0 0 0 0 0 0 0 0 0 0 0 0 0 0 0 0 0 0 0 0 0 0 0 0 0 0 0
0 0 0 0 2 6 7 0 0 0 0 0 0 0 0 0 0 0 0 0 0 0 0 0 0 0 0 0 0 0 0 0 0 0 0 0 0 0 0 0 0 0 0
0 0 0 0 0 12 16 0 0 0 0 0 0 0 0 0 0 0 0 0 0 0 0 0 0 0 0 0 0 0 0 0 0 0 0 0 0 0 0 0 0 0 0
0 0 0 0 0 0 22 13 0 0 0 0 0 0 0 0 0 0 0 0 0 0 0 0 0 0 0 0 0 0 0 0 0 0 0 0 0 0 0 0 0 0 0
0 0 0 0 0 0 0 0 0 0 0 0 0 0 0 0 0 0 0 0 0 0 0 0 0 0 0 0 0 0 0 0 0 0 0 0 0 0 0 0 0 0 0
0 0 0 0 0 0 0 0 0 0 0 0 0 0 0 0 0 0 0 0 0 0 0 0 0 0 0 0 0 0 0 0 0 0 0 0 0 0 0 0 0 0 0
0 0 0 0 0 0 0 0 0 0 0 0 0 0 0 0 0 0 0 0 0 0 0 0 0 0 0 0 0 0 0 0 0 0 0 0 0 0 0 0 0 0 0
0 0 0 0 0 0 0 0 0 0 0 0 0 0 0 0 0 0 0 0 0 0 0 0 0 0 0 0 0 0 0 0 0 0 0 0 0 0 0 0 0 0 0

GFSSE_con_sbcape_030.txt.gz
CAPE
472 1051 1615 1373 1084 1585 1269 1502 1546 1648 1553 1521 1503 1448 1490 1576 1683 1552 1555 1654 1689 1649 1412 1802 1781 1726 1782 1582 1492 1537 1683 1604 1606 1631 1710 1732 1789 1631 1519 1380 1132 682 614
571 1207 1819 1382 1209 1298 1084 1284 1182 1241 1146 1148 1134 1088 999 1123 1333 1549 1529 1394 1623 1643 1468 1459 1806 1648 1672 1493 1443 1488 1432 1339 1514 1528 1558 1788 1482 1688 1520 1445 1498 678 648
857 1131 1748 1874 1161 1152 1209 1120 943 857 839 825 852 768 684 652 983 1016 1224 1493 1406 1473 1536 1409 1568 1576 1686 1448 1330 1397 1415 1347 1296 1393 1336 991 1236 1418 1364 1280 1269 904 699
785 1262 1396 1762 1462 1130 1078 941 750 655 564 444 398 398 433 393 591 670 551 819 1205 1376 1349 1442 1351 1548 1681 1356 1523 1555 1425 1628 1564 1373 810 786 1121 1315 1289 1225 1103 1014 936
690 1129 1099 2190 1887 1671 1100 791 558 417 332 141 62 49 65 137 238 155 271 406 524 613 1004 1481 1514 1372 1700 1552 1607 1651 1618 1602 1529 1122 926 773 876 1239 1206 1230 1260 887 839
421 980 1712 2359 1769 1789 1277 722 457 207 83 22 11 5 0 14 25 0 8 224 146 168 272 468 912 1389 1731 1443 1535 1732 1723 1511 1014 660 576 964 996 1162 1099 1028 893 842 823
514 913 1824 2122 1649 1530 1231 783 427 117 44 55 3 0 0 0 0 0 0 1 31 96 127 111 320 822 1730 1296 1353 1385 1489 1074 411 420 440 410 718 1262 1290 970 899 822 838
843 1203 1569 2240 2166 1622 1229 897 466 311 48 0 0 0 0 0 0 0 0 0 0 1 3 18 256 994 1362 1204 1155 1354 1104 858 287 300 462 447 684 942 1057 1187 931 857 875
919 1139 1379 1675 1869 2046 1742 1045 575 348 141 0 0 0 0 0 0 0 0 0 0 0 0 1 105 398 614 620 747 749 825 371 3 17 212 534 1214 1253 1173 979 1204 980 912
1032 1230 1528 1571 1351 1127 966 1302 668 452 175 0 0 0 0 0 0 0 0 0 0 0 0 0 0 41 204 170 66 7 125 0 0 0 0 186 570 605 1017 1141 1204 1140 1176
480 887 1201 932 779 636 464 675 905 427 130 15 0 1 0 0 0 0 0 0 0 0 0 0 0 0 0 0 0 0 0 0 0 0 0 116 100 206 702 796 845 835 865
325 531 890 674 552 328 506 446 339 148 2 0 0 0 0 0 0 0 0 0 0 0 0 0 0 0 0 0 0 0 0 0 0 0 0 0 0 3 6 147 258 319 455
9 287 829 610 478 268 285 135 53 0 0 0 0 0 0 0 0 0 0 0 0 0 0 0 0 0 0 0 0 0 0 0 0 0 0 0 0 2 1 0 2 37 154
0 0 453 649 498 255 152 133 80 0 0 0 0 0 0 0 0 0 0 0 0 0 0 0 0 0 0 0 0 0 0 0 0 0 0 0 0 3 1 0 0 0 0
0 0 0 557 439 298 115 108 0 0 0 0 0 0 0 0 0 0 0 0 0 0 0 0 0 0 0 0 0 0 0 0 0 0 0 0 0 0 0 0 0 0 0
0 0 0 157 342 187 64 97 0 0 0 0 0 0 0 0 0 0 0 0 0 0 0 0 0 0 0 0 0 0 0 0 0 0 0 0 0 0 0 0 0 0 0
0 0 0 0 10 61 11 25 0 0 0 0 0 0 0 0 0 0 0 0 0 0 0 0 0 0 0 0 0 0 0 0 0 0 0 0 0 0 0 0 0 0 0
0 0 0 0 0 0 0 0 0 0 0 0 0 0 0 0 0 0 0 0 0 0 0 0 0 0 0 0 0 0 0 0 0 0 0 0 0 0 0 0 0 0 0
0 0 0 0 0 0 0 0 0 0 0 0 0 0 0 0 0 0 0 0 0 0 0 0 0 0 0 0 0 0 0 0 0 0 0 0 0 0 0 0 0 0 0
0 0 0 0 0 0 0 0 0 0 0 0 0 0 0 0 0 0 0 0 0 0 0 0 0 0 0 0 0 0 0 0 0 0 0 0 0 0 0 0 0 0 0
0 0 0 0 0 0 0 0 0 0 0 0 0 0 0 0 0 0 0 0 0 0 0 0 0 0 0 0 0 0 0 0 0 0 0 0 0 0 0 0 0 0 0
0 0 0 0 0 0 0 0 0 0 0 0 0 0 0 0 0 0 0 0 0 0 0 0 0 0 0 0 0 0 0 0 0 0 0 0 0 0 0 0 0 0 0
0 0 0 0 0 0 0 0 0 0 0 0 0 0 0 0 0 0 0 0 0 0 0 0 0 0 0 0 0 0 0 0 0 0 0 0 0 0 0 0 0 0 0
0 0 0 0 0 0 0 0 0 0 0 0 0 0 0 0 0 0 0 0 0 0 0 0 0 0 0 0 0 0 0 0 0 0 0 0 0 0 0 0 0 0 0
0 0 0 0 0 0 0 0 0 0 0 0 0 0 0 0 0 0 0 0 0 0 0 0 0 0 0 0 0 0 0 0 0 0 0 0 0 0 0 0 0 0 0
0 0 0 0 0 0 0 0 0 0 0 0 0 0 0 0 0 0 0 0 0 0 0 0 0 0 0 0 0 0 0 0 0 0 0 0 0 0 0 0 0 0 0

GFSSE_con_sbcape_036.txt.gz
CAPE
174 201 1245 1562 1132 1171 1481 1612 1995 1682 1663 1439 1493 1722 928 617 1066 1601 1567 1688 1362 1795 1715 1703 1819 1362 1318 1200 1213 1565 1842 2004 1993 1988 1974 2136 2109 1492 1217 940 832 606 329
167 559 1237 1092 1174 1063 991 2084 1150 992 1584 971 713 624 661 645 688 1391 1536 1554 1425 1406 1805 1629 1650 1225 1088 1104 1131 1456 1572 1682 1660 1701 1685 1986 1947 1633 1098 1039 1007 731 420
255 967 1099 1044 1231 1011 1083 1020 887 923 994 960 717 534 764 843 1355 1212 547 766 1557 1296 1518 1580 1446 1169 1294 1411 1369 1413 1543 1517 1549 1496 1463 1079 1389 1355 1261 1081 1096 896 642
641 1086 1159 1183 1579 1026 923 840 824 983 1052 1037 662 594 540 547 564 454 1102 1196 936 1346 1240 1473 1584 1232 1510 1587 1486 1521 1465 1431 1422 1358 836 917 1090 1346 1230 1050 1046 919 808
830 1101 1162 1046 1255 1372 650 598 835 812 811 767 660 466 223 311 416 302 690 317 278 1230 1294 1240 1481 1319 1604 1549 1738 1659 1636 1583 1346 784 646 737 865 1183 1158 1095 966 1003 780
760 1068 1340 1625 1459 1073 649 509 813 714 573 384 115 22 11 100 108 135 401 97 149 209 505 597 1241 1509 1514 1629 1897 1872 1915 1531 906 586 760 1037 839 1279 1184 1067 979 1011 807
724 887 1456 1569 1493 1311 1313 677 783 592 367 42 1 0 0 1 2 0 26 104 90 46 66 114 472 1410 1387 1524 1644 1886 1571 892 174 184 257 488 955 1172 1108 1036 908 986 960
666 825 1297 2002 1794 1776 966 791 808 470 174 58 28 0 0 0 0 0 0 3 6 6 9 25 174 784 1259 1224 1257 1592 972 517 74 21 38 184 962 983 1151 942 865 849 895
545 673 1190 1725 2164 2586 1879 806 870 474 181 147 50 0 0 0 0 0 0 0 0 2 3 4 0 705 1214 1087 1213 1183 767 169 0 3 205 167 989 1101 967 1094 992 948 933
455 750 1184 1523 1799 1787 1436 1792 1177 758 255 174 57 8 1 0 0 0 0 0 0 0 0 2 3 312 383 335 177 95 227 0 0 0 0 198 398 641 1081 1087 1029 1073 1045
597 576 886 1216 1392 1358 1181 1376 1560 1070 737 267 154 94 0 0 0 0 0 0 0 0 0 0 0 1 0 0 0 13 0 0 0 0 0 99 0 119 278 544 759 821 851
402 725 881 1325 1316 1001 1327 1023 1001 536 472 126 35 5 0 0 0 0 0 0 0 0 0 0 0 0 0 0 0 0 0 0 0 0 0 0 0 0 0 3 203 359 621
0 166 1045 1143 1046 918 982 493 383 171 66 2 0 0 0 0 0 0 0 0 0 0 0 0 0 0 0 0 0 0 0 0 0 0 0 0 0 0 0 0 28 101 345
0 0 0 540 1074 838 707 419 341 107 9 0 0 0 0 0 0 0 0 0 0 0 0 0 0 0 0 0 0 0 0 0 0 0 0 0 0 0 2 2 5 7 21
0 0 0 0 435 1010 668 231 280 226 32 3 0 0 0 0 0 0 0 0 0 0 0 0 0 0 0 0 0 0 0 0 0 0 0 0 0 0 0 0 0 0 0
0 0 0 0 0 547 518 144 148 183 6 2 0 0 0 0 0 0 0 0 0 0 0 0 0 0 0 0 0 0 0 0 0 0 0 0 0 0 0 0 0 0 0
0 0 0 0 0 0 0 42 52 1 0 0 0 0 0 0 0 0 0 0 0 0 0 0 0 0 0 0 0 0 0 0 0 0 0 0 0 0 0 0 0 0 0
0 0 0 0 0 0 0 0 0 0 0 0 0 0 0 0 0 0 0 0 0 0 0 0 0 0 0 0 0 0 0 0 0 0 0 0 0 0 0 0 0 0 0
0 0 0 0 0 0 0 0 0 0 0 0 0 0 0 0 0 0 0 0 0 0 0 0 0 0 0 0 0 0 0 0 0 0 0 0 0 0 0 0 0 0 0
0 0 0 0 0 0 0 0 0 0 0 0 0 0 0 0 0 0 0 0 0 0 0 0 0 0 0 0 0 0 0 0 0 0 0 0 0 0 0 0 0 0 0
0 0 0 0 0 0 0 0 0 0 0 0 0 0 0 0 0 0 0 0 0 0 0 0 0 0 0 0 0 0 0 0 0 0 0 0 0 0 0 0 0 0 0
0 0 0 0 0 0 0 0 0 0 0 0 0 0 0 0 0 0 0 0 0 0 0 0 0 0 0 0 0 0 0 0 0 0 0 0 0 0 0 0 0 0 0
0 0 0 0 0 0 0 0 0 0 0 0 0 0 0 0 0 0 0 0 0 0 0 0 0 0 0 0 0 0 0 0 0 0 0 0 0 0 0 0 0 0 0
0 0 0 0 0 0 0 0 0 0 0 0 0 0 0 0 0 0 0 0 0 0 0 0 0 0 0 0 0 0 0 0 0 0 0 0 0 0 0 0 0 0 0
0 0 0 0 0 0 0 0 0 0 0 0 0 0 0 0 0 0 0 0 0 0 0 0 0 0 0 0 0 0 0 0 0 0 0 0 0 0 0 0 0 0 0
0 0 0 0 0 0 0 0 0 0 0 0 0 0 0 0 0 0 0 0 0 0 0 0 0 0 0 0 0 0 0 0 0 0 0 0 0 0 0 0 0 0 0

GFSSE_con_sbcape_042.txt.gz
CAPE
318 441 1153 1257 1389 1730 1415 1459 1449 941 1351 1566 1194 382 370 372 1015 1392 1298 1424 1548 1368 1716 1283 1249 1350 1174 1532 1708 1637 1737 1795 1960 2055 1718 1631 1410 1137 970 758 939 200 185
184 321 1374 1229 1070 1243 1374 1574 1188 1566 1141 506 321 341 558 635 956 799 1134 1147 1379 1215 1538 1289 1148 1102 1102 1251 1322 1515 1672 1722 1859 1648 1461 1743 1696 1378 1243 1054 1105 356 195
257 420 1116 1295 879 966 946 1636 686 973 804 360 134 134 549 726 588 491 635 1204 1198 1283 1568 986 1034 968 1091 1000 1433 1505 1573 1490 1519 1475 1381 940 1231 1331 1352 1268 930 570 234
249 395 733 1112 1322 854 796 800 899 393 499 748 436 110 392 404 332 333 668 368 1120 1085 1293 1284 1187 1503 1581 1464 1484 1410 1427 1471 1203 1094 851 830 1015 1144 1196 1142 1228 786 446
382 395 869 1421 485 836 466 841 527 767 944 980 560 448 136 188 58 289 486 85 558 953 964 976 1356 1328 1476 1403 1371 1262 1382 1328 1086 1183 1163 1276 1230 1198 1213 1011 1002 784 611
537 609 1249 1448 910 796 675 446 387 822 726 588 304 49 55 129 90 199 170 42 171 359 312 571 717 1351 1427 1440 1368 1236 1277 1149 1264 921 1153 919 1121 1094 989 955 1014 818 577
449 439 946 1226 1244 1121 904 522 436 912 724 426 60 7 23 39 4 4 0 5 20 21 22 225 490 783 1374 1309 1206 1269 1272 860 869 600 335 543 1077 994 917 892 938 955 682
453 450 494 1561 1492 1612 970 881 544 847 726 190 39 11 10 26 5 0 0 0 6 0 0 4 212 969 1023 1149 1166 1314 918 630 459 368 338 209 652 900 875 769 783 791 826
484 629 695 1013 1565 1879 1559 1087 658 830 774 220 107 30 1 1 1 0 0 0 0 0 0 0 0 588 783 1072 1321 1138 526 269 226 291 97 17 525 859 812 753 707 750 906
811 806 917 1252 1470 1575 1415 1921 1206 794 954 463 246 122 22 0 0 0 0 0 0 0 0 0 0 99 13 60 517 694 188 0 177 350 160 118 72 387 544 959 854 873 911
678 937 1064 1127 1400 1888 1815 1716 1557 1424 1264 718 544 288 118 9 0 0 0 0 0 0 0 0 0 0 0 0 18 212 15 481 333 179 78 0 0 5 0 219 382 467 704
0 0 227 1277 1407 1638 1867 1719 1768 1623 1342 1126 749 445 297 46 0 0 0 0 0 0 0 0 0 0 0 5 0 0 85 78 2 28 81 0 0 0 0 0 19 190 479
0 0 0 0 15 245 1850 1912 2073 1819 1715 1280 1015 836 519 180 2 0 0 0 0 0 0 0 0 0 0 0 0 0 0 5 5 6 8 0 0 0 0 0 0 20 211
0 0 0 0 0 0 1025 1657 1678 2067 1848 1668 1307 990 864 621 201 0 0 0 0 0 0 0 0 0 0 0 0 0 0 0 3 8 14 0 0 0 0 0 0 0 0
0 0 0 0 0 1 444 1415 1293 1223 1301 1817 1550 1218 1013 746 733 263 3 0 0 0 0 0 0 0 0 0 0 0 0 0 0 0 0 0 0 0 0 0 0 0 0
0 0 0 0 0 0 0 260 396 475 395 437 510 909 1012 1198 973 599 281 23 0 0 0 0 0 0 0 0 0 0 0 0 0 0 0 0 0 0 0 0 0 0 0
0 0 0 0 0 0 0 0 0 0 0 0 1 1 0 0 58 255 238 151 28 0 0 0 0 0 0 0 0 0 0 0 0 0 0 0 0 0 0 0 0 0 0
0 0 0 0 0 0 0 0 0 0 0 0 0 0 0 0 1 3 7 22 67 0 0 0 0 0 0 0 0 0 0 0 0 0 0 0 0 0 0 0 0 0 0
0 0 0 0 0 0 0 0 0 0 0 0 0 0 0 0 0 0 4 22 19 7 6 0 0 0 0 0 0 0 0 0 0 0 0 0 0 0 0 0 0 0 0
0 0 0 0 0 0 0 0 0 0 0 0 0 0 0 0 0 0 0 0 5 21 14 9 0 0 0 0 0 0 0 0 0 0 0 0 0 0 0 0 0 0 0
0 0 0 0 0 0 0 0 0 0 0 0 0 0 0 0 0 0 0 0 0 0 11 18 10 0 0 0 0 0 0 0 0 0 0 0 0 0 0 0 0 0 0
0 0 0 0 0 0 0 0 0 0 0 0 0 0 0 0 0 0 0 0 0 0 0 1 0 12 2 0 0 0 0 0 0 0 0 0 0 0 0 0 0 0 0
0 0 0 0 0 0 0 0 0 0 0 0 0 0 0 0 0 0 0 0 0 0 0 0 0 2 0 0 0 0 0 0 0 0 0 0 0 0 0 0 0 0 0
0 0 0 0 0 0 0 0 0 0 0 0 0 0 0 0 0 0 0 0 0 0 0 0 0 0 5 0 3 0 0 0 0 0 0 0 0 0 0 0 0 0 0
0 0 0 0 0 0 0 0 0 0 0 0 0 0 0 0 0 0 0 0 0 0 0 0 0 0 0 0 0 0 0 0 0 0 0 0 0 0 0 0 0 0 0
0 0 0 0 0 0 0 0 0 0 0 0 0 0 0 0 0 0 0 0 0 0 0 0 0 0 0 0 0 0 0 0 0 0 0 0 0 0 0 0 0 0 0

GFSSE_con_sbcape_045.txt.gz
CAPE
124 629 1268 1210 1570 1505 1172 1644 1126 1063 1444 897 518 421 556 534 1156 1163 1198 1278 1444 1415 1341 1154 1278 1463 1539 1495 1540 1643 1545 1648 1840 1656 1343 1395 1419 1102 1043 1338 674 151 153
71 263 1458 1260 1351 1445 1374 1314 961 1342 750 334 205 421 823 1045 548 657 1198 1195 1299 1373 1361 1120 1037 993 1225 1348 1528 1696 1656 1689 1522 1215 1474 1353 1613 1471 1172 901 989 213 132
36 431 1017 1205 790 1029 1330 1308 500 921 542 176 107 218 372 595 384 891 821 922 1046 1367 1397 963 1085 1325 702 1496 1625 1640 1544 1508 1432 1464 1582 1268 1227 1325 1201 1047 760 385 214
20 211 938 1223 1237 849 1471 869 534 96 361 506 69 164 199 323 157 480 251 1090 1245 1051 1231 1374 1324 1470 1453 1600 1525 1482 1497 1231 922 1165 1200 928 975 1182 1088 1173 868 684 392
19 96 1322 1517 1280 864 496 362 164 227 667 773 128 329 71 115 78 382 351 460 606 735 823 895 1315 1344 1393 1499 1417 1444 1384 1170 1145 1251 1272 1335 1253 1165 991 1110 962 740 473
37 98 1305 1386 1139 655 389 314 282 833 720 608 333 42 58 145 84 256 132 146 103 362 313 649 866 1240 1395 1389 1306 1310 1214 1103 1342 379 1328 1073 1061 1069 938 937 935 707 604
48 135 449 1010 907 756 751 541 435 616 777 470 78 1 14 56 4 47 48 33 53 43 78 208 565 837 1162 1291 1398 1363 1233 1043 1037 191 59 508 855 846 783 873 937 863 592
56 57 620 1168 1214 1325 1060 722 536 781 857 376 49 4 2 22 5 0 0 21 41 6 0 43 267 1198 1156 1188 1286 1342 1008 867 521 78 32 139 623 763 758 633 685 769 774
191 272 272 810 1577 1942 1692 1251 512 948 1039 426 148 64 6 0 1 0 0 0 0 0 0 0 13 596 925 1294 1334 1310 654 501 394 140 17 262 1266 873 774 632 577 641 838
615 526 343 316 640 1693 1613 2115 1374 865 1262 737 447 277 109 3 0 0 0 0 0 0 0 0 0 94 134 326 1284 888 341 170 209 151 94 146 280 310 602 970 850 834 774
466 666 603 412 402 1262 1540 1867 1884 1465 1562 1155 726 577 284 108 37 0 2 0 0 0 0 0 0 0 0 10 441 554 392 498 424 62 17 202 0 0 7 206 361 535 761
0 0 0 0 182 961 1330 1489 1468 1501 1576 1484 1036 845 667 117 44 0 0 0 0 0 0 0 0 0 0 0 238 213 15 107 290 150 82 124 0 0 0 0 40 243 497
0 0 0 0 0 0 1135 1881 2666 1895 2118 1605 1313 944 744 430 152 9 0 0 0 0 0 0 0 0 0 0 0 0 0 0 1 3 25 7 0 0 0 0 0 43 254
0 0 0 0 0 2 17 1686 1696 1418 1507 1662 1606 1325 1221 1072 725 278 4 0 0 0 0 0 0 0 0 0 0 0 0 0 0 1 35 105 0 0 0 0 0 0 12
0 0 0 0 0 0 1 504 770 602 689 726 738 742 568 1310 1121 894 620 86 0 0 0 0 0 0 0 0 0 0 0 0 0 0 10 8 0 0 0 0 0 0 0
0 0 0 0 0 0 0 0 0 0 58 46 15 7 0 1 198 531 774 887 421 10 0 0 0 0 0 0 0 0 0 0 0 0 0 0 0 0 0 0 0 0 1
0 0 0 0 0 0 0 0 0 0 0 0 0 0 0 0 0 2 34 162 267 288 49 0 0 0 0 0 0 0 0 0 0 0 0 0 0 0 0 0 0 0 0
0 0 0 0 0 0 0 0 0 0 0 0 0 0 0 0 0 0 1 17 56 42 42 15 0 0 0 0 0 0 0 0 0 0 0 0 0 0 0 0 0 0 0
0 0 0 0 0 0 0 0 0 0 0 0 0 0 0 0 0 0 0 0 7 47 17 4 24 0 0 0 0 0 0 0 0 0 0 0 0 0 0 0 0 0 0
0 0 0 0 0 0 0 0 0 0 0 0 0 0 0 0 0 0 0 0 0 0 20 30 10 0 6 0 0 0 0 0 0 0 0 0 0 0 0 0 0 0 0
0 0 0 0 0 0 0 0 0 0 0 0 0 0 0 0 0 0 0 0 0 0 0 1 21 30 0 14 0 0 0 0 0 0 0 0 0 0 0 0 0 0 0
0 0 0 0 0 0 0 0 0 0 0 0 0 0 0 0 0 0 0 0 0 0 0 0 0 7 7 0 7 4 0 0 0 0 0 0 0 0 0 0 0 0 0
0 0 0 0 0 0 0 0 0 0 0 0 0 0 0 0 0 0 0 0 0 0 0 0 0 6 16 16 0 0 1 0 0 0 0 0 0 0 0 0 0 0 0
0 0 0 0 0 0 0 0 0 0 0 0 0 0 0 0 0 0 0 0 0 0 0 0 0 0 13 14 13 0 0 0 0 0 0 0 0 0 0 0 0 0 0
0 0 0 0 0 0 0 0 0 0 0 0 0 0 0 0 0 0 0 0 0 0 0 0 0 0 0 0 26 20 14 0 0 0 0 0 0 0 0 0 0 0 0
0 0 0 0 0 0 0 0 0 0 0 0 0 0 0 0 0 0 0 0 1 2 0 0 0 0 0 1 7 32 40 15 0 0 0 0 0 0 0 0 0 0 0

GFSSE_con_sbcape_048.txt.gz
CAPE
744 747 1759 1277 1908 1062 1244 1174 1296 1102 808 462 353 990 1131 714 803 1222 1165 1327 1355 1489 1188 1326 1229 1549 1347 1440 1647 1570 1734 1784 1340 1344 1311 1580 1541 1056 731 667 365 84 21
368 591 1813 1373 2054 1407 1383 1107 1160 899 391 196 170 368 737 634 801 1015 1014 1071 1381 1351 983 1192 1005 939 1340 1649 1640 1705 1773 1433 1139 1278 1417 1384 1569 1286 884 601 584 153 28
132 656 1156 1632 1211 923 1395 879 492 725 304 109 68 239 154 469 292 614 882 1171 1101 1415 1302 1312 1586 1402 1411 1507 1693 1487 1457 1463 1365 1287 1413 875 1144 1170 1106 752 497 343 87
229 130 737 1532 1395 1277 1337 1244 659 234 637 403 176 320 47 131 161 514 430 901 1077 1069 1190 1395 1460 1524 1529 1607 1480 1473 1321 970 867 1014 1090 969 871 1147 1045 899 861 485 164
25 803 1076 1665 1032 922 893 600 284 169 672 672 428 135 2 68 98 457 307 414 554 592 811 1025 1245 1420 1380 1583 1487 1383 1194 1056 1369 1264 883 820 757 933 1178 1082 742 532 283
203 1005 1782 1517 961 984 580 393 345 356 620 520 231 1 17 96 16 239 195 172 105 311 324 603 878 1135 1414 1327 1362 1284 1175 1126 1492 560 885 1173 814 972 936 1003 799 646 390
342 528 985 1438 975 690 684 512 386 157 758 402 35 0 0 9 3 5 52 92 117 43 132 215 600 1397 1086 1173 1452 1376 1188 1275 1086 36 586 630 755 952 839 909 965 713 595
0 485 523 1623 1585 1302 1002 650 303 407 731 355 43 0 0 0 0 0 0 1 6 24 6 7 262 825 1246 1148 1655 1395 1163 1151 574 91 79 378 936 708 692 662 686 824 617
0 22 561 655 1453 2270 1924 1462 827 741 994 485 141 83 4 0 0 0 0 0 0 0 0 0 7 433 768 1302 1407 1445 943 806 267 125 207 695 1382 894 706 619 548 676 837
187 67 27 1164 1166 1261 1405 2125 1823 1085 1103 826 536 330 196 57 1 0 0 0 0 0 0 0 0 4 91 335 1503 1119 611 475 22 59 41 423 939 580 1031 924 814 785 759
0 0 0 0 42 568 1013 1638 1411 1620 1456 1640 1173 1089 724 64 0 0 18 0 0 0 0 0 0 0 0 0 583 1052 731 254 307 111 4 667 404 127 264 416 527 849 812
0 0 0 0 0 0 1040 1230 1105 1290 1106 1124 790 690 461 254 10 0 0 0 0 0 0 0 0 0 0 0 0 813 63 0 24 55 5 382 81 26 0 0 133 375 624
0 0 0 0 0 0 160 1338 1191 993 988 1047 1178 874 650 698 165 0 0 0 0 0 0 0 0 0 0 0 0 94 0 0 0 0 83 352 83 7 0 0 0 123 322
0 0 0 0 0 0 136 477 413 394 519 498 452 458 282 370 607 584 212 4 0 0 0 0 0 0 0 0 0 0 0 0 0 0 12 465 238 60 5 0 0 0 171
0 0 0 0 0 0 0 0 36 237 162 156 57 7 0 3 59 87 119 295 206 0 0 0 0 0 0 0 0 0 0 0 0 0 0 416 242 59 4 0 0 0 0
0 0 0 0 0 0 0 0 0 0 0 0 0 0 0 0 0 0 0 0 14 41 4 1 0 0 0 0 0 0 0 0 0 0 0 5 192 16 0 0 0 0 0
0 0 0 0 0 0 0 0 0 0 0 0 0 0 0 0 0 0 0 0 0 0 0 0 0 0 0 0 0 0 0 0 0 0 0 0 0 0 0 0 0 0 0
0 0 0 0 0 0 0 0 0 0 0 0 0 0 0 0 0 0 0 0 7 9 0 0 0 0 0 0 0 0 0 0 0 0 0 0 0 0 0 0 0 0 0
0 0 0 0 0 0 0 0 0 0 0 0 0 0 0 0 0 0 0 0 0 0 15 7 4 0 1 0 0 0 0 0 0 0 0 0 0 0 0 0 0 0 0
0 0 0 0 0 0 0 0 0 0 0 0 0 0 0 0 0 0 0 0 0 0 0 6 12 0 0 0 0 0 0 0 0 0 0 0 0 0 0 0 0 0 0
0 0 0 0 0 0 0 0 0 0 0 0 0 0 0 0 0 0 0 0 0 0 0 0 0 0 0 0 0 2 0 0 0 0 0 0 0 0 0 0 0 0 0
0 0 0 0 0 0 0 0 0 0 0 0 0 0 0 0 0 0 0 0 0 0 0 0 0 0 0 5 0 4 0 0 0 0 0 0 0 0 0 0 0 0 0
0 0 0 0 0 0 0 0 0 0 0 0 0 0 0 0 0 0 0 0 0 0 0 0 0 0 0 0 36 9 15 0 0 0 0 0 0 0 0 0 0 0 0
0 0 0 0 0 0 0 0 0 0 0 0 0 0 0 0 0 0 0 0 0 0 0 0 0 0 0 0 12 39 11 0 0 0 0 0 0 0 0 0 0 0 0
0 0 0 0 0 0 0 0 0 0 0 0 0 0 0 0 0 0 0 0 0 0 0 0 0 0 0 0 0 1 46 24 0 11 0 0 0 0 0 0 0 0 0
0 0 0 0 0 0 0 0 0 0 0 0 0 0 0 0 0 0 0 0 0 0 0 0 0 0 0 0 0 0 6 65 18 0 0 0 0 0 0 0 0 0 0